Date String (YYYY-MM-DD hh:mm:ss) UTC,Instrument flags,Ambient pressure (hPa),Sample flow (lpm),Bypass flow (lpm),Sample temperature (°C),Ambient temperature (°C),ASC tube jacket temperature (°C),LED temperature (°C),Box temperature (°C),Sample RH (%),Span deviation,Mass concentration (μg/m³),Mass concentration (μg/m³),Mass concentration (μg/m³)
DateTimeUTC,F1_M11,P_M11,Q1_M11,Q2_M11,T1_M11,T2_M11,T3_M11,T4_M11,T5_M11,U1_M11,ZSPAN_M11,X0_M11,X2_M11,X1_M11
2022-12-13 09:00:00,,0809.9,5.00,0.00,22.5,21.1,00.0,31.4,24.4,11.9,-000.5,0011.27,0007.25,0006.70
2022-12-13 09:01:00,,0809.9,5.02,0.00,22.5,21.0,00.0,31.4,24.4,11.8,0000.3,0011.28,0007.22,0006.67
2022-12-13 09:02:00,,0809.9,4.97,0.00,22.5,21.0,00.0,31.3,24.3,11.8,0000.0,0011.08,0007.14,0006.62
2022-12-13 09:03:00,,0810.0,5.01,0.00,22.5,21.0,00.0,31.3,24.3,11.7,0000.2,0010.84,0007.07,0006.57
2022-12-13 09:04:00,,0810.0,5.02,0.00,22.5,21.0,00.0,31.3,24.3,11.7,0000.2,0010.58,0007.03,0006.54
2022-12-13 09:05:00,,0810.0,4.97,0.00,22.5,21.0,00.0,31.3,24.3,11.7,0000.7,0010.31,0006.97,0006.52
2022-12-13 09:06:00,,0810.0,5.02,0.00,22.5,21.0,00.0,31.3,24.3,11.8,0000.4,0010.22,0006.91,0006.49
2022-12-13 09:07:00,,0810.0,4.98,0.00,22.5,20.9,00.0,31.3,24.3,11.8,0000.3,0010.32,0006.93,0006.49
2022-12-13 09:08:00,,0810.0,5.01,0.00,22.4,20.8,00.0,31.3,24.2,11.8,0000.2,0010.10,0006.88,0006.48
2022-12-13 09:09:00,,0809.9,5.01,0.00,22.4,20.8,00.0,31.3,24.2,11.9,0000.1,0009.75,0006.84,0006.48
2022-12-13 09:10:00,,0810.0,4.97,0.00,22.4,20.7,00.0,31.3,24.2,12.0,-000.0,0009.74,0006.84,0006.48
2022-12-13 09:11:00,,0810.0,5.02,0.00,22.4,20.6,00.0,31.3,24.2,12.0,-000.4,0009.61,0006.83,0006.48
2022-12-13 09:12:00,,0809.9,5.01,0.00,22.4,20.5,00.0,31.3,24.1,12.0,-000.4,0009.58,0006.84,0006.50
2022-12-13 09:13:00,,0809.9,5.01,0.00,22.3,20.5,00.0,31.2,24.1,12.0,-000.1,0009.67,0006.89,0006.52
2022-12-13 09:14:00,,0809.8,4.98,0.00,22.3,21.1,00.0,31.2,24.2,12.0,-000.1,0009.59,0006.88,0006.55
2022-12-13 09:15:00,,0809.9,4.98,0.00,22.4,22.0,00.0,31.2,24.4,11.9,-000.0,0009.57,0006.90,0006.57
2022-12-13 09:16:00,,0809.8,5.02,0.00,22.5,22.1,00.0,31.2,24.4,11.9,-000.6,0009.66,0006.93,0006.59
2022-12-13 09:17:00,,0809.9,5.00,0.00,22.5,21.8,00.0,31.3,24.4,11.9,-000.9,0009.70,0006.96,0006.61
2022-12-13 09:18:00,,0809.9,4.98,0.00,22.5,21.4,00.0,31.3,24.3,11.9,-000.8,0009.60,0006.96,0006.62
2022-12-13 09:19:00,,0810.0,5.01,0.00,22.5,21.1,00.0,31.3,24.3,11.9,-000.6,0009.63,0007.00,0006.63
2022-12-13 09:20:00,,0809.9,5.01,0.00,22.4,20.9,00.0,31.3,24.2,11.9,-000.5,0009.76,0007.04,0006.63
2022-12-13 09:21:00,,0810.0,5.00,0.00,22.4,20.8,00.0,31.2,24.2,12.0,-000.2,0009.82,0007.06,0006.65
2022-12-13 09:22:00,,0809.9,4.98,0.00,22.4,20.7,00.0,31.2,24.2,12.0,0000.2,0009.94,0007.07,0006.65
2022-12-13 09:23:00,,0809.9,5.01,0.00,22.4,20.6,00.0,31.2,24.1,12.0,0000.1,0010.17,0007.06,0006.63
2022-12-13 09:24:00,,0809.9,5.01,0.00,22.3,20.5,00.0,31.2,24.1,12.0,-000.3,0010.36,0007.04,0006.62
2022-12-13 09:25:00,,0809.9,5.01,0.00,22.3,20.5,00.0,31.2,24.0,12.1,-000.1,0010.41,0007.05,0006.63
2022-12-13 09:26:00,,0809.9,4.97,0.00,22.3,20.4,00.0,31.2,24.0,12.1,0000.1,0010.42,0007.06,0006.64
2022-12-13 09:27:00,,0810.0,5.05,0.00,22.2,20.3,00.0,31.2,24.0,12.1,0000.4,0010.68,0007.06,0006.64
2022-12-13 09:28:00,,0810.0,4.95,0.00,22.2,20.2,00.0,31.1,24.0,12.2,0000.9,0010.71,0007.04,0006.64
2022-12-13 09:29:00,,0810.0,5.05,0.00,22.2,20.2,00.0,31.1,23.9,12.3,0000.5,0010.79,0007.07,0006.66
2022-12-13 09:30:00,,0810.0,4.96,0.00,22.1,20.1,00.0,31.1,23.9,12.3,0000.0,0010.88,0007.12,0006.68
2022-12-13 09:31:00,,0810.0,5.02,0.00,22.1,20.0,00.0,31.1,23.8,12.4,-000.1,0010.91,0007.16,0006.71
2022-12-13 09:32:00,,0810.1,4.99,0.00,22.0,20.0,00.0,31.0,23.8,12.5,-000.2,0011.66,0007.22,0006.76
2022-12-13 09:33:00,,0810.1,5.00,0.00,22.0,20.1,00.0,31.0,23.8,12.6,-000.9,0012.05,0007.29,0006.81
2022-12-13 09:34:00,,0810.1,5.04,0.00,22.1,20.9,00.0,31.0,23.9,12.6,-000.9,0012.45,0007.40,0006.89
2022-12-13 09:35:00,,0810.1,4.97,0.00,22.2,21.9,00.0,31.0,24.1,12.6,-001.2,0012.38,0007.50,0006.97
2022-12-13 09:36:00,,0810.1,5.01,0.00,22.2,21.8,00.0,31.0,24.1,12.6,-001.7,0012.49,0007.61,0007.05
2022-12-13 09:37:00,,0810.1,4.99,0.00,22.2,21.4,00.0,31.0,24.1,12.7,-002.0,0012.67,0007.72,0007.11
2022-12-13 09:38:00,,0810.1,5.02,0.00,22.2,21.0,00.0,31.0,24.0,12.7,-002.2,0012.54,0007.82,0007.19
2022-12-13 09:39:00,,0810.1,4.97,0.00,22.1,20.7,00.0,31.0,23.9,12.8,-002.4,0012.54,0007.92,0007.27
2022-12-13 09:40:00,,0810.1,5.01,0.00,22.1,20.3,00.0,31.0,23.8,12.9,-002.2,0012.69,0008.01,0007.36
2022-12-13 09:41:00,,0810.1,5.00,0.00,22.1,20.1,00.0,31.0,23.7,12.9,-002.0,0012.90,0008.05,0007.45
2022-12-13 09:42:00,,0810.2,5.00,0.00,22.0,19.9,00.0,31.0,23.6,13.0,-002.2,0013.02,0008.13,0007.52
2022-12-13 09:43:00,,0810.2,5.01,0.00,22.0,19.8,00.0,30.9,23.6,13.1,-002.3,0012.60,0008.22,0007.59
2022-12-13 09:44:00,,0810.2,5.00,0.00,21.9,19.6,00.0,30.9,23.5,13.2,-001.8,0012.28,0008.31,0007.66
2022-12-13 09:45:00,,0810.2,5.00,0.00,21.8,19.4,00.0,30.9,23.4,13.2,-001.7,0012.00,0008.37,0007.72
2022-12-13 09:46:00,,0810.2,5.00,0.00,21.8,19.3,00.0,30.8,23.3,13.3,-001.4,0011.98,0008.41,0007.76
2022-12-13 09:47:00,,0810.2,4.99,0.00,21.7,19.3,00.0,30.8,23.3,13.3,-000.8,0012.17,0008.50,0007.80
2022-12-13 09:48:00,,0810.2,5.01,0.00,21.7,20.1,00.0,30.7,23.4,13.3,-000.7,0012.40,0008.56,0007.86
2022-12-13 09:49:00,,0810.2,5.00,0.00,21.8,21.3,00.0,30.7,23.6,13.2,-000.6,0012.49,0008.59,0007.88
2022-12-13 09:50:00,,0810.2,5.00,0.00,21.9,21.6,00.0,30.8,23.8,13.2,-000.8,0012.58,0008.61,0007.89
2022-12-13 09:51:00,,0810.2,4.98,0.00,21.9,21.2,00.0,30.8,23.7,13.1,-000.6,0012.69,0008.65,0007.90
2022-12-13 09:52:00,,0810.2,5.01,0.00,21.9,20.7,00.0,30.8,23.6,13.2,-000.7,0012.61,0008.69,0007.92
2022-12-13 09:53:00,,0810.2,5.01,0.00,21.8,20.4,00.0,30.8,23.5,13.1,-000.4,0012.56,0008.69,0007.93
2022-12-13 09:54:00,,0810.2,5.00,0.00,21.8,20.0,00.0,30.7,23.5,13.1,-000.5,0012.50,0008.68,0007.95
2022-12-13 09:55:00,,0810.2,4.97,0.00,21.8,19.8,00.0,30.7,23.4,13.1,-000.8,0012.47,0008.68,0007.94
2022-12-13 09:56:00,,0810.2,5.00,0.00,21.7,19.7,00.0,30.7,23.4,13.2,-000.8,0012.45,0008.68,0007.93
2022-12-13 09:57:00,,0810.2,5.00,0.00,21.7,19.7,00.0,30.7,23.3,13.1,-000.8,0012.39,0008.68,0007.93
2022-12-13 09:58:00,,0810.2,5.00,0.00,21.7,19.7,00.0,30.6,23.3,13.1,-001.3,0012.32,0008.66,0007.93
2022-12-13 09:59:00,,0810.2,5.01,0.00,21.6,19.6,00.0,30.6,23.3,13.1,-001.0,0012.10,0008.61,0007.90
